E24YPM-1 Weather Reports


Display with metric or nautical units.
time (UTC)temp
F
wind
direction
speed
MPH
gust
MPH
rain 1hr
in
rain 24hr
in
rain mn
in
humidity
%
barometer
mb
20260506050921 98 0 0.0 0.0 0.00 0.00 0.00 49 1004.0
20260506043857 96 0 0.0 0.0 0.00 0.00 0.00 50 1004.0
20260506042345 96 0 0.0 0.0 0.00 0.00 0.00 51 1004.0
20260506040918 95 0 0.0 0.0 0.00 0.00 0.00 52 1005.0
20260506035318 95 0 0.0 0.0 0.00 0.00 0.00 53 1005.0
20260506033806 95 0 0.0 0.0 0.00 0.00 0.00 53 1005.0
20260506032254 95 0 0.0 0.0 0.00 0.00 0.00 53 1005.0
20260506030740 94 0 0.0 0.0 0.00 0.00 0.00 53 1005.0
20260506025228 93 0 0.0 0.0 0.00 0.00 0.00 53 1005.0
20260506023716 93 0 0.0 0.0 0.00 0.00 0.00 50 1005.0
20260506022204 93 0 0.0 0.0 0.00 0.00 0.00 50 1005.0
20260506020651 93 0 0.0 0.0 0.00 0.00 0.00 50 1005.0
20260506015139 93 0 0.0 0.0 0.00 0.00 0.00 50 1005.0
20260506013627 93 0 0.0 0.0 0.00 0.00 0.00 51 1005.0
20260506012115 93 0 0.0 0.0 0.00 0.00 0.00 51 1005.0
20260506010602 93 0 0.0 0.0 0.00 0.00 0.00 51 1005.0
20260506005103 93 0 0.0 0.0 0.00 0.00 0.00 52 1005.0
20260506003538 93 0 0.0 0.0 0.00 0.00 0.00 51 1005.0
20260506002025 93 0 0.0 0.0 0.00 0.00 0.00 51 1005.0
20260506000511 93 0 0.0 0.0 0.00 0.00 0.00 51 1005.0
20260505234958 93 0 0.0 0.0 0.00 0.00 0.00 51 1004.0
20260505233533 92 0 0.0 0.0 0.00 0.00 0.00 50 1004.0
20260505231934 92 0 0.0 0.0 0.00 0.00 0.00 49 1004.0
20260505230508 92 0 0.0 0.0 0.00 0.00 0.00 49 1004.0
20260505222247 92 0 0.0 0.0 0.00 0.00 0.00 45 1003.0
20260505220731 92 0 0.0 0.0 0.00 0.00 0.00 44 1003.0
20260505215217 91 0 0.0 0.0 0.00 0.00 0.00 43 1003.0
20260505213705 91 0 0.0 0.0 0.00 0.00 0.00 42 1003.0
20260505212152 91 0 0.0 0.0 0.00 0.00 0.00 40 1003.0
20260505210639 90 0 0.0 0.0 0.00 0.00 0.00 38 1002.0
20260505205126 89 0 0.0 0.0 0.00 0.00 0.00 35 1002.0
20260505203659 88 0 0.0 0.0 0.00 0.00 0.00 31 1002.0
20260505202100 88 0 0.0 0.0 0.00 0.00 0.00 29 1003.0
20260505200548 87 0 0.0 0.0 0.00 0.00 0.00 29 1003.0
20260505195034 87 0 0.0 0.0 0.00 0.00 0.00 29 1003.0
20260505192405 88 0 0.0 0.0 0.00 0.00 0.00 29 1003.0
20260505190853 88 0 0.0 0.0 0.00 0.00 0.00 29 1003.0
20260505185340 88 0 0.0 0.0 0.00 0.00 0.00 28 1003.0
20260505183828 88 0 0.0 0.0 0.00 0.00 0.00 29 1003.0
20260505182342 88 0 0.0 0.0 0.00 0.00 0.00 29 1003.0
20260505180752 88 0 0.0 0.0 0.00 0.00 0.00 29 1004.0
20260505175239 88 0 0.0 0.0 0.00 0.00 0.00 29 1004.0
20260505173805 88 0 0.0 0.0 0.00 0.00 0.00 29 1004.0
20260505172222 88 0 0.0 0.0 0.00 0.00 0.00 29 1004.0
20260505170652 89 0 0.0 0.0 0.00 0.00 0.00 29 1004.0
20260505165140 88 0 0.0 0.0 0.00 0.00 0.00 29 1004.0
20260505163627 89 0 0.0 0.0 0.00 0.00 0.00 29 1005.0
20260505162112 89 0 0.0 0.0 0.00 0.00 0.00 30 1005.0
20260505160555 89 0 0.0 0.0 0.00 0.00 0.00 30 1005.0
20260505152003 88 0 0.0 0.0 0.00 0.00 0.00 33 1005.0
20260505150445 89 0 0.0 0.0 0.00 0.00 0.00 33 1005.0
20260505140343 91 0 0.0 0.0 0.00 0.00 0.00 37 1004.0
20260505130236 96 0 0.0 0.0 0.00 0.00 0.00 52 1002.0
20260505124724 96 0 0.0 0.0 0.00 0.00 0.00 51 1002.0
20260505123210 96 0 0.0 0.0 0.00 0.00 0.00 50 1002.0
20260505121656 96 0 0.0 0.0 0.00 0.00 0.00 49 1002.0
20260505120421 96 0 0.0 0.0 0.00 0.00 0.00 48 1002.0
20260505114628 96 0 0.0 0.0 0.00 0.00 0.00 48 1002.0
20260505113114 96 0 0.0 0.0 0.00 0.00 0.00 48 1001.0
20260505111601 96 0 0.0 0.0 0.00 0.00 0.00 48 1001.0
20260505101505 97 0 0.0 0.0 0.00 0.00 0.00 48 1001.0
20260505095948 97 0 0.0 0.0 0.00 0.00 0.00 47 1001.0
20260505094432 97 0 0.0 0.0 0.00 0.00 0.00 47 1001.0
20260505092920 97 0 0.0 0.0 0.00 0.00 0.00 46 1001.0
20260505091407 97 0 0.0 0.0 0.00 0.00 0.00 45 1001.0
20260505085852 97 0 0.0 0.0 0.00 0.00 0.00 46 1001.0
20260505082755 97 0 0.0 0.0 0.00 0.00 0.00 46 1002.0
20260505081235 97 0 0.0 0.0 0.00 0.00 0.00 46 1002.0
20260505075722 96 0 0.0 0.0 0.00 0.00 0.00 46 1002.0
20260505074207 96 0 0.0 0.0 0.00 0.00 0.00 44 1003.0
20260505072655 96 0 0.0 0.0 0.00 0.00 0.00 45 1003.0
20260505065603 96 0 0.0 0.0 0.00 0.00 0.00 47 1003.0
20260505064051 95 0 0.0 0.0 0.00 0.00 0.00 46 1004.0
20260505062538 95 0 0.0 0.0 0.00 0.00 0.00 47 1004.0
20260505061026 96 0 0.0 0.0 0.00 0.00 0.00 47 1005.0
20260505055512 95 0 0.0 0.0 0.00 0.00 0.00 47 1005.0